Location: Marcé
(47.5801°N, 0.3280°W)
Time: 14:26:40
(UTC+01:00)

Explorer 7 - Pass Details

Date: 02 December 2021
Orbit: 483 x 674 km, 50.3° (Epoch: 19 January)

Event Time Altitude Azimuth Distance (km) Brightness Sun altitude
Rises 06:03:56 0° 190° (S) 2,832 10.4 -23.8°
Reaches altitude 10° 06:07:21 10° 163° (SSE) 1,886 9.8 -23.2°
Maximum altitude 06:09:21 13° 135° (SE) 1,665 9.9 -22.9°
Drops below altitude 10° 06:11:19 10° 106° (ESE) 1,834 10.6 -22.5°
Sets 06:14:33 0° 79° (E) 2,685 11.6 -22.0°
